TimeCST,TemperatureF,Dew PointF,Humidity,Sea Level PressureIn,VisibilityMPH,Wind Direction,Wind SpeedMPH,Gust SpeedMPH,PrecipitationIn,Events,Conditions,WindDirDegrees,DateUTC
12:54 AM,17.1,12.0,81,30.59,10.0,SSW,6.9,-,N/A,,Clear,200,2013-11-13 06:54:00
1:54 AM,17.1,10.9,77,30.58,10.0,SSW,5.8,-,N/A,,Clear,210,2013-11-13 07:54:00
2:54 AM,19.0,12.0,74,30.55,10.0,SSW,6.9,-,N/A,,Clear,200,2013-11-13 08:54:00
3:54 AM,19.9,12.0,71,30.53,10.0,SSW,8.1,-,N/A,,Clear,200,2013-11-13 09:54:00
4:54 AM,19.9,10.9,68,30.51,10.0,SSW,8.1,-,N/A,,Clear,200,2013-11-13 10:54:00
5:54 AM,19.9,12.0,71,30.47,10.0,South,11.5,-,N/A,,Clear,190,2013-11-13 11:54:00
6:54 AM,21.0,12.0,68,30.45,10.0,South,9.2,-,N/A,,Clear,190,2013-11-13 12:54:00
7:54 AM,23.0,12.9,65,30.43,10.0,South,11.5,-,N/A,,Clear,190,2013-11-13 13:54:00
8:54 AM,28.0,15.1,58,30.41,10.0,SSW,13.8,-,N/A,,Clear,200,2013-11-13 14:54:00
9:54 AM,32.0,17.1,54,30.39,10.0,SSW,17.3,25.3,N/A,,Clear,200,2013-11-13 15:54:00
10:54 AM,36.0,19.0,50,30.35,10.0,SSW,19.6,29.9,N/A,,Clear,210,2013-11-13 16:54:00
11:54 AM,39.9,19.9,45,30.30,10.0,SSW,21.9,26.5,N/A,,Clear,210,2013-11-13 17:54:00
12:54 PM,43.0,19.9,40,30.26,10.0,SSW,19.6,29.9,N/A,,Clear,210,2013-11-13 18:54:00
1:54 PM,45.0,19.9,37,30.21,10.0,SSW,23.0,32.2,N/A,,Clear,200,2013-11-13 19:54:00
2:54 PM,45.0,19.9,37,30.19,10.0,SSW,19.6,26.5,N/A,,Clear,200,2013-11-13 20:54:00
3:54 PM,45.0,18.0,34,30.16,10.0,SSW,16.1,26.5,N/A,,Clear,200,2013-11-13 21:54:00
4:54 PM,43.0,18.0,37,30.14,10.0,South,12.7,23.0,N/A,,Clear,190,2013-11-13 22:54:00
5:54 PM,39.0,18.0,43,30.14,10.0,South,10.4,-,N/A,,Clear,180,2013-11-13 23:54:00
6:54 PM,37.0,16.0,42,30.13,10.0,South,9.2,-,N/A,,Clear,190,2013-11-14 00:54:00
7:54 PM,35.1,16.0,46,30.11,10.0,South,10.4,-,N/A,,Clear,190,2013-11-14 01:54:00
8:54 PM,35.1,16.0,46,30.11,10.0,SSW,11.5,-,N/A,,Clear,200,2013-11-14 02:54:00
9:54 PM,36.0,17.1,46,30.08,10.0,SSW,12.7,-,N/A,,Clear,200,2013-11-14 03:54:00
10:54 PM,35.1,17.1,48,30.06,10.0,SSW,13.8,-,N/A,,Clear,200,2013-11-14 04:54:00
11:54 PM,35.1,18.0,50,30.05,10.0,SSW,10.4,-,N/A,,Clear,200,2013-11-14 05:54:00